Winner, SD

7:10 AM CDT on April 26, 2017 (GMT -0500)
Winner

Weather History for KICR - April, 2014

Change the Weather History Date:

Wednesday, April 23, 2014

  Actual Average Record
Temperature  
Mean Temperature 66 °F 50 °F  
Max Temperature 79 °F 62 °F 89 °F (2009)
Min Temperature 53 °F 39 °F 13 °F (2013)
Degree Days  
Heating Degree Days 0 15  
Month to date heating degree days 387 426  
Since 1 July heating degree days 6670 6311  
Cooling Degree Days 1 0  
Month to date cooling degree days 3 0  
Year to date cooling degree days 3 0  
Growing Degree Days 16 (Base 50)    
Moisture  
Dew Point 37 °F    
Average Humidity 41    
Maximum Humidity 55    
Minimum Humidity 27    
Precipitation  
Precipitation 0.00 in 0.09 in 0.00 in (2017)
Month to date precipitation 0.15 1.74  
Year to date precipitation 0.27 3.88  
Sea Level Pressure  
Sea Level Pressure 29.57 in    
Wind  
Wind Speed 18 mph (South)    
Max Wind Speed 37 mph    
Max Gust Speed 47 mph    
Visibility 10 miles    
Events      
T = Trace of Precipitation, MM = Missing Value Source: NWS Daily Summary

Daily Weather History Graph

Daily Weather History Graph

Search for Another Location

Airport or City:

Trip Planner

Search our weather history database for the weather conditions in past years. The results will help you decide how hot, cold, wet, or windy it might be!

Date:

Astronomy

Apr. 23, 2014 Rise Set
Actual Time 6:44 AM CDT 8:31 PM CDT
Civil Twilight 6:13 AM CDT 9:02 PM CDT
Nautical Twilight 5:36 AM CDT 9:39 PM CDT
Astronomical Twilight 4:56 AM CDT 10:20 PM CDT
Moon 3:27 AM CDT (4/23) 2:32 PM CDT (4/23)
Length of Visible Light 14h 48m
Length of Day
13h 47m
Waning Crescent, 34% of the Moon is Illuminated
Apr 23
Waning Crescent
Apr 29
New
May 6
First Quarter
May 14
Full
May 21
Last Quarter

Hourly Weather History & Observations

Time (CDT) Temp. Dew Point Humidity Pressure Visibility Wind Dir Wind Speed Gust Speed Precip Events Conditions
12:53 AM 61.0 °F 32.0 °F 34% 29.75 in 10.0 mi SSE 10.4 mph - N/A   Overcast
1:53 AM 60.1 °F 32.0 °F 35% 29.71 in 10.0 mi SSE 15.0 mph - N/A   Clear
2:53 AM 59.0 °F 32.0 °F 36% 29.67 in 9.0 mi SE 21.9 mph - N/A   Clear
3:53 AM 57.9 °F 32.0 °F 37% 29.61 in 10.0 mi SE 17.3 mph - N/A   Clear
4:53 AM 57.0 °F 32.0 °F 39% 29.58 in 10.0 mi SE 21.9 mph 28.8 mph N/A   Clear
5:53 AM 55.9 °F 30.9 °F 39% 29.55 in 10.0 mi SE 23.0 mph 32.2 mph N/A   Clear
6:53 AM 55.9 °F 32.0 °F 40% 29.53 in 10.0 mi SE 21.9 mph 29.9 mph N/A   Clear
7:53 AM 55.9 °F 33.1 °F 42% 29.52 in 10.0 mi SE 21.9 mph 33.4 mph N/A   Clear
8:53 AM 57.0 °F 35.1 °F 44% 29.52 in 10.0 mi SSE 21.9 mph - N/A   Partly Cloudy
9:53 AM 62.1 °F 37.9 °F 41% 29.52 in 10.0 mi SSE 25.3 mph 35.7 mph N/A   Partly Cloudy
10:53 AM 66.0 °F 39.0 °F 37% 29.50 in 10.0 mi SSE 21.9 mph 28.8 mph N/A   Clear
12:53 PM 72.0 °F 42.1 °F 34% 29.48 in 10.0 mi South 17.3 mph - N/A   Clear
1:53 PM 72.0 °F 43.0 °F 35% 29.47 in 10.0 mi SSW 9.2 mph - N/A   Clear
3:53 PM 77.0 °F 43.0 °F 30% 29.48 in 10.0 mi NW 13.8 mph 19.6 mph N/A   Clear
4:53 PM 75.9 °F 42.1 °F 30% 29.47 in 10.0 mi NW 11.5 mph 23.0 mph N/A   Partly Cloudy
5:53 PM 75.0 °F 43.0 °F 32% 29.49 in 10.0 mi NW 11.5 mph - N/A   Mostly Cloudy
6:53 PM 73.9 °F 37.0 °F 26% 29.51 in 10.0 mi WNW 13.8 mph - N/A   Mostly Cloudy
7:53 PM 63.0 °F 43.0 °F 48% 29.56 in 10.0 mi NNW 29.9 mph 40.3 mph N/A   Scattered Clouds
8:53 PM 57.9 °F 41.0 °F 53% 29.60 in 10.0 mi NNW 20.7 mph 31.1 mph N/A   Scattered Clouds
9:53 PM 57.9 °F 39.0 °F 49% 29.68 in 10.0 mi NW 18.4 mph - N/A   Overcast
10:53 PM 54.0 °F 37.0 °F 53% 29.71 in 10.0 mi NW 13.8 mph - N/A   Partly Cloudy
11:53 PM 54.0 °F 37.9 °F 55% 29.73 in 10.0 mi NW 10.4 mph - N/A   Overcast